Location: Unspecified
(0.0000°N, 0.0000°E)
Time: 08:55:09
(UTC+02:00)

NATO 3D Rocket - Visible Passes

Search period start: 30 June 2016 00:00
Search period end: 10 July 2016 00:00
Orbit: 670 x 2296 km, 21.5° (Epoch: 29 June)

Date Brightness Start Highest point End Pass type
(mag) Time Alt. Az. Time Alt. Az. Time Alt. Az.
30 Jun 6.6 00:08:33 10° NW 00:11:20 20° NNW 00:11:20 20° NNW visible
30 Jun 6.3 04:34:24 43° SE 04:34:24 43° SE 04:42:46 10° ESE visible
30 Jun 6.2 06:29:58 28° WSW 06:36:04 39° SSW 06:47:41 10° SE visible
30 Jun 6.5 21:11:52 10° N 21:12:52 10° N 21:13:55 10° NNE visible
30 Jun 6.3 23:12:09 10° NNW 23:17:16 23° NNE 23:17:16 23° NNE visible
01 Jul 7.2 03:41:11 19° ESE 03:41:11 19° ESE 03:44:01 10° ESE visible
01 Jul 6.0 05:36:45 46° SSW 05:36:50 46° SSW 05:49:41 10° SE visible
01 Jul 6.5 07:33:19 10° WSW 07:44:38 29° SSW 07:54:27 10° SE visible
01 Jul 6.3 22:16:09 10° NNW 22:20:23 16° NNE 22:23:14 14° NE visible
02 Jul 6.8 00:17:25 10° NW 00:18:44 16° NW 00:18:44 16° NW visible
02 Jul 6.4 04:43:26 37° SSE 04:43:26 37° SSE 04:51:17 10° SE visible
02 Jul 6.4 06:38:59 24° SW 06:45:22 33° SSW 06:56:34 10° SE visible
02 Jul 6.4 21:21:00 10° N 21:22:40 11° NNE 21:24:27 10° NNE visible
02 Jul 6.1 23:21:01 10° NW 23:24:45 25° N 23:24:45 25° N visible
03 Jul 7.3 03:50:02 17° SE 03:50:02 17° SE 03:52:33 10° ESE visible
03 Jul 6.2 05:45:35 37° SSW 05:46:01 38° SSW 05:58:21 10° SE visible
03 Jul 6.0 22:24:58 10° NNW 22:29:50 20° NNE 22:30:48 20° NNE visible
04 Jul 6.6 04:52:07 32° SSE 04:52:07 32° SSE 04:59:48 10° SE visible
04 Jul 6.6 06:47:39 19° SW 06:54:55 29° S 07:05:44 10° SE visible
04 Jul 6.2 21:29:26 10° N 21:32:18 13° NNE 21:35:33 10° NE visible
04 Jul 6.2 23:29:52 10° NW 23:32:23 23° NNW 23:32:23 23° NNW visible
05 Jul 7.3 03:58:34 17° SE 03:58:34 17° SE 04:00:58 10° SE visible
05 Jul 6.4 05:54:07 31° SSW 05:55:28 32° S 06:07:13 10° SE visible
05 Jul 5.6 22:33:43 10° NNW 22:38:31 27° NNE 22:38:31 27° NNE visible
06 Jul 6.6 05:00:31 29° SSE 05:00:31 29° SSE 05:08:25 10° SE visible
06 Jul 6.7 06:56:03 16° SW 07:04:38 28° S 07:15:17 10° SE visible
06 Jul 5.8 21:37:53 10° NNW 21:41:43 18° NNE 21:44:41 14° NE visible
06 Jul 6.4 23:38:49 10° NW 23:40:12 18° NW 23:40:12 18° NW visible
07 Jul 7.3 04:06:55 16° SE 04:06:55 16° SE 04:09:23 10° SE visible
07 Jul 6.5 06:02:26 27° SSW 06:05:07 29° S 06:16:26 10° SE visible
07 Jul 6.0 20:42:49 10° N 20:44:24 11° NNE 20:46:03 10° NE visible
07 Jul 5.3 22:42:31 10° NW 22:46:25 33° N 22:46:25 33° N visible
08 Jul 6.7 05:08:47 28° SSE 05:08:47 28° SSE 05:17:17 10° SE visible
08 Jul 6.7 07:04:18 13° SW 07:14:22 29° S 07:25:14 10° ESE visible
08 Jul 5.3 21:46:28 10° NNW 21:50:57 26° NNE 21:52:39 23° NE visible
08 Jul 6.7 23:47:56 10° WNW 23:48:11 11° WNW 23:48:11 11° WNW visible
09 Jul 7.2 04:15:06 17° SE 04:15:06 17° SE 04:17:58 10° SE visible
09 Jul 6.6 06:10:38 24° SSW 06:14:51 28° S 06:26:03 10° SE visible
09 Jul 5.6 20:50:41 10° NNW 20:53:50 16° NNE 20:57:23 10° ENE visible
09 Jul 5.3 22:51:30 10° NW 22:54:28 33° NW 22:54:28 33° NW visible
